Location: Kershaw
(34.5481°N, 80.5823°W)
Time: 16:17:42
(UTC+00:00)

Courier 1B Rocket - Pass Details

Date: 29 September 2022
Orbit: 920 x 1202 km, 28.2° (Epoch: 08 December)

Event Time Altitude Azimuth Distance (km) Brightness Sun altitude
Rises 01:57:14 0° 240° (WSW) 3,625 8.4 -34.4°
Reaches altitude 10° 02:00:05 10° 233° (SW) 2,650 7.5 -34.9°
Enters shadow 02:01:56 19° 223° (SW) 2,073 6.8 -35.2°
Maximum altitude 02:05:52 37° 167° (SSE) 1,382 - -36.0°
Drops below altitude 10° 02:11:32 10° 101° (E) 2,605 - -37.0°
Sets 02:14:18 0° 93° (E) 3,556 - -37.5°
